AFL638 UHWW-VTSP

Flight info

Callsign AFL638
Flight time N/A
Altitude 32100
Route SANAR2G SANAR B451 WQG G341 TGO G212 BUMDU W47 ASAVA W45 NUPTI R343 WUY R474 TEBAK/K0943F321 R474 LAVOS/N0509F321 R474 BKK Y8 SAVSA SAVSA1D
Aircraft B77W/H-SDE1E2E3FGHIJ2J3J4J5M1RWXY/LB1D1

Departure

Time 2026-04-20 21:24
Airport Vladivostok International Airport (UHWW)

Arrival

Time N/A
Airport Phuket International Airport (VTSP)
Time Latitude Longitude Altitude Speed Heading
2026-04-20 21:11 43.39706 132.16419 75 ft 0 kts 151°
2026-04-20 21:16 43.39716 132.16412 64 ft 4 kts 147°
2026-04-20 21:16 43.39736 132.16391 64 ft 4 kts 130°
2026-04-20 21:16 43.39750 132.16362 64 ft 4 kts 109°
2026-04-20 21:16 43.39755 132.16329 66 ft 4 kts 85°
2026-04-20 21:17 43.39750 132.16298 64 ft 3 kts 62°
2026-04-20 21:17 43.39748 132.16294 64 ft 0 kts 61°
2026-04-20 21:20 43.39756 132.16314 64 ft 3 kts 61°
2026-04-20 21:20 43.39777 132.16367 64 ft 12 kts 61°
2026-04-20 21:20 43.39804 132.16434 64 ft 12 kts 62°
2026-04-20 21:20 43.39846 132.16537 64 ft 14 kts 61°
2026-04-20 21:21 43.39895 132.16660 66 ft 15 kts 61°
2026-04-20 21:21 43.39945 132.16783 68 ft 15 kts 60°
2026-04-20 21:21 43.39995 132.16907 64 ft 15 kts 61°
2026-04-20 21:21 43.40043 132.17026 67 ft 12 kts 62°
2026-04-20 21:22 43.40104 132.17084 69 ft 13 kts 358°
2026-04-20 21:22 43.40205 132.17023 65 ft 17 kts 332°
2026-04-20 21:22 43.40307 132.16948 64 ft 17 kts 332°
2026-04-20 21:22 43.40402 132.16876 63 ft 12 kts 331°
2026-04-20 21:23 43.40436 132.16823 68 ft 6 kts 264°
2026-04-20 21:23 43.40418 132.16763 62 ft 9 kts 244°
2026-04-20 21:23 43.40407 132.16734 68 ft 0 kts 241°
2026-04-20 21:23 43.40387 132.16685 62 ft 27 kts 242°
2026-04-20 21:24 43.40170 132.16147 63 ft 100 kts 241°
2026-04-20 21:24 43.39726 132.15049 71 ft 160 kts 241°
2026-04-20 21:24 43.39106 132.13523 132 ft 198 kts 241°
2026-04-20 21:24 43.38445 132.11901 791 ft 194 kts 240°
2026-04-20 21:25 43.37796 132.10291 1595 ft 185 kts 241°
2026-04-20 21:25 43.37163 132.08715 2094 ft 197 kts 242°
2026-04-20 21:25 43.36462 132.06976 2296 ft 219 kts 243°
2026-04-20 21:25 43.35692 132.05072 2630 ft 235 kts 243°
2026-04-20 21:26 43.34883 132.03076 3275 ft 241 kts 244°
2026-04-20 21:26 43.34223 132.00969 3969 ft 241 kts 254°
2026-04-20 21:26 43.33725 131.98776 4773 ft 240 kts 256°
2026-04-20 21:26 43.33252 131.96580 5557 ft 239 kts 257°
2026-04-20 21:27 43.32780 131.94395 6340 ft 238 kts 257°
2026-04-20 21:27 43.32301 131.92206 7009 ft 240 kts 257°
2026-04-20 21:27 43.31815 131.90007 7689 ft 242 kts 257°
2026-04-20 21:27 43.31321 131.87795 8382 ft 243 kts 257°
2026-04-20 21:28 43.30821 131.85575 9072 ft 244 kts 257°
2026-04-20 21:28 43.30316 131.83346 9727 ft 245 kts 258°
2026-04-20 21:28 43.29801 131.81071 10126 ft 258 kts 258°
2026-04-20 21:28 43.29248 131.78618 10290 ft 279 kts 257°
2026-04-20 21:29 43.28647 131.75971 10465 ft 301 kts 257°
2026-04-20 21:29 43.27998 131.73134 10694 ft 320 kts 257°
2026-04-20 21:29 43.27323 131.70203 11227 ft 331 kts 257°
2026-04-20 21:29 43.26619 131.67162 11941 ft 337 kts 256°
2026-04-20 21:30 43.25902 131.64068 12762 ft 343 kts 256°
2026-04-20 21:30 43.25175 131.60930 13547 ft 348 kts 256°
2026-04-20 21:30 43.24438 131.57750 14332 ft 352 kts 256°
2026-04-20 21:30 43.23696 131.54548 15189 ft 353 kts 256°
2026-04-20 21:31 43.22946 131.51319 16015 ft 356 kts 256°
2026-04-20 21:31 43.22191 131.48070 16770 ft 360 kts 256°
2026-04-20 21:31 43.21596 131.44747 17387 ft 359 kts 267°
2026-04-20 21:31 43.21683 131.41340 18026 ft 360 kts 278°
2026-04-20 21:32 43.21971 131.37915 18655 ft 363 kts 277°
2026-04-20 21:32 43.22243 131.34455 19353 ft 366 kts 277°
2026-04-20 21:32 43.22503 131.30970 20015 ft 369 kts 277°
2026-04-20 21:32 43.22757 131.27451 20666 ft 372 kts 276°
2026-04-20 21:33 43.23007 131.23909 21324 ft 375 kts 276°
2026-04-20 21:33 43.23257 131.20335 21969 ft 378 kts 276°
2026-04-20 21:33 43.23480 131.16729 22592 ft 381 kts 275°
2026-04-20 21:33 43.23661 131.13090 23212 ft 384 kts 275°
2026-04-20 21:34 43.23829 131.09408 23712 ft 388 kts 275°
2026-04-20 21:34 43.23994 131.05702 24181 ft 391 kts 275°
2026-04-20 21:34 43.24161 131.01964 24633 ft 395 kts 275°
2026-04-20 21:34 43.24332 130.98201 25067 ft 398 kts 275°
2026-04-20 21:35 43.24507 130.94381 25510 ft 402 kts 275°
2026-04-20 21:35 43.24681 130.90592 25943 ft 405 kts 275°
2026-04-20 21:35 43.24858 130.86722 26367 ft 409 kts 275°
2026-04-20 21:35 43.25036 130.82810 26767 ft 412 kts 275°
2026-04-20 21:36 43.25214 130.78864 27167 ft 416 kts 275°
2026-04-20 21:36 43.25396 130.74834 27563 ft 420 kts 275°
2026-04-20 21:36 43.25572 130.70881 27940 ft 423 kts 275°
2026-04-20 21:36 43.25752 130.66830 28298 ft 426 kts 275°
2026-04-20 21:37 43.25930 130.62765 28632 ft 429 kts 275°
2026-04-20 21:37 43.26109 130.58652 28954 ft 432 kts 275°
2026-04-20 21:37 43.26286 130.54526 29282 ft 435 kts 275°
2026-04-20 21:37 43.26464 130.50371 29575 ft 438 kts 275°
2026-04-20 21:38 43.26642 130.46182 29843 ft 441 kts 275°
2026-04-20 21:38 43.26819 130.41979 30098 ft 441 kts 275°
2026-04-20 21:38 43.26993 130.37782 30453 ft 441 kts 275°
2026-04-20 21:38 43.27166 130.33588 30823 ft 439 kts 275°
2026-04-20 21:39 43.27337 130.29411 31155 ft 439 kts 275°
2026-04-20 21:39 43.27506 130.25225 31460 ft 439 kts 275°
2026-04-20 21:39 43.27675 130.21043 31724 ft 440 kts 275°
2026-04-20 21:40 43.28009 130.12615 31814 ft 442 kts 275°
2026-04-20 21:40 43.28334 130.04250 31822 ft 436 kts 275°
2026-04-20 21:41 43.28652 129.95944 31828 ft 435 kts 275°
2026-04-20 21:41 43.28964 129.87651 31834 ft 435 kts 275°
2026-04-20 21:42 43.29305 129.79370 31836 ft 434 kts 277°
2026-04-20 21:42 43.30306 129.71235 31843 ft 432 kts 283°
2026-04-20 21:43 43.31485 129.63159 31836 ft 431 kts 282°
2026-04-20 21:43 43.32630 129.55134 31842 ft 431 kts 282°
2026-04-20 21:44 43.33769 129.47066 31826 ft 430 kts 282°
2026-04-20 21:44 43.34899 129.39009 31839 ft 429 kts 282°
2026-04-20 21:45 43.36022 129.30959 31834 ft 429 kts 282°
2026-04-20 21:45 43.37139 129.22916 31839 ft 428 kts 282°
2026-04-20 21:46 43.38250 129.14880 31854 ft 428 kts 282°
2026-04-20 21:46 43.39354 129.06849 31859 ft 427 kts 282°
2026-04-20 21:47 43.40429 128.98808 31862 ft 427 kts 282°
2026-04-20 21:47 43.41481 128.90780 31866 ft 426 kts 282°
2026-04-20 21:48 43.42528 128.82770 31858 ft 425 kts 282°
2026-04-20 21:48 43.43571 128.74771 31864 ft 424 kts 282°
2026-04-20 21:49 43.44606 128.66789 31874 ft 423 kts 282°
2026-04-20 21:49 43.45634 128.58813 31878 ft 423 kts 282°
2026-04-20 21:50 43.46649 128.50893 31872 ft 423 kts 282°
2026-04-20 21:50 43.47666 128.42910 31879 ft 423 kts 282°
2026-04-20 21:51 43.48677 128.34934 31883 ft 423 kts 282°
2026-04-20 21:51 43.49687 128.26940 31891 ft 424 kts 282°
2026-04-20 21:52 43.50742 128.18948 31891 ft 424 kts 282°
2026-04-20 21:52 43.51806 128.10957 31891 ft 424 kts 282°
2026-04-20 21:53 43.52858 128.02957 31893 ft 424 kts 282°
2026-04-20 21:53 43.53898 127.94980 31899 ft 423 kts 282°
2026-04-20 21:54 43.54933 127.87006 31895 ft 422 kts 282°
2026-04-20 21:54 43.55957 127.79065 31891 ft 420 kts 282°
2026-04-20 21:55 43.56963 127.71141 31897 ft 419 kts 282°
2026-04-20 21:55 43.57958 127.63244 31893 ft 418 kts 282°
2026-04-20 21:56 43.58948 127.55359 31892 ft 417 kts 282°
2026-04-20 21:56 43.59930 127.47486 31891 ft 416 kts 282°
2026-04-20 21:57 43.60904 127.39630 31900 ft 415 kts 282°
2026-04-20 21:57 43.61875 127.31771 31893 ft 416 kts 282°
2026-04-20 21:58 43.62806 127.23951 31898 ft 416 kts 281°
2026-04-20 21:58 43.63661 127.16059 31889 ft 415 kts 281°
2026-04-20 21:59 43.64506 127.08162 31911 ft 415 kts 281°
2026-04-20 21:59 43.65353 127.00259 31895 ft 416 kts 281°
2026-04-20 22:00 43.66197 126.92364 31910 ft 416 kts 281°
2026-04-20 22:00 43.67042 126.84466 31897 ft 416 kts 281°
2026-04-20 22:01 43.67873 126.76617 31905 ft 415 kts 281°
2026-04-20 22:01 43.68702 126.68722 31899 ft 415 kts 281°
2026-04-20 22:02 43.69526 126.60832 31903 ft 415 kts 281°
2026-04-20 22:02 43.70345 126.52938 31905 ft 415 kts 281°
2026-04-20 22:03 43.71174 126.45057 31920 ft 414 kts 282°
2026-04-20 22:03 43.71977 126.37163 31909 ft 414 kts 281°
2026-04-20 22:04 43.72766 126.29273 31906 ft 414 kts 281°
2026-04-20 22:04 43.73558 126.21381 31904 ft 414 kts 281°
2026-04-20 22:05 43.74348 126.13494 31892 ft 414 kts 281°
2026-04-20 22:05 43.75132 126.05609 31898 ft 414 kts 281°
2026-04-20 22:06 43.75780 125.99053 31894 ft 413 kts 281°
2026-04-20 22:06 43.76753 125.89924 31897 ft 412 kts 281°
2026-04-20 22:07 43.77117 125.81985 31891 ft 416 kts 273°
2026-04-20 22:07 43.76801 125.75285 31897 ft 417 kts 270°
2026-04-20 22:08 43.76354 125.67305 31884 ft 416 kts 270°
2026-04-20 22:08 43.75917 125.59390 31896 ft 415 kts 270°
2026-04-20 22:09 43.75479 125.51450 31890 ft 414 kts 270°
2026-04-20 22:09 43.75039 125.43519 31911 ft 413 kts 270°
2026-04-20 22:10 43.74593 125.35603 31912 ft 413 kts 270°
2026-04-20 22:10 43.74142 125.27692 31926 ft 412 kts 269°
2026-04-20 22:11 43.73687 125.19807 31924 ft 411 kts 269°
2026-04-20 22:11 43.73227 125.11924 31928 ft 411 kts 269°
2026-04-20 22:12 43.72762 125.04051 31929 ft 410 kts 269°
2026-04-20 22:12 43.72292 124.96192 31939 ft 410 kts 269°
2026-04-20 22:13 43.71817 124.88340 31941 ft 410 kts 269°
2026-04-20 22:13 43.71337 124.80484 31949 ft 410 kts 269°
2026-04-20 22:14 43.70852 124.72634 31950 ft 410 kts 269°
2026-04-20 22:14 43.70361 124.64783 31958 ft 410 kts 268°
2026-04-20 22:15 43.69867 124.56980 31954 ft 410 kts 268°
2026-04-20 22:15 43.69364 124.49119 31958 ft 411 kts 268°
2026-04-20 22:16 43.68856 124.41252 31958 ft 411 kts 268°
2026-04-20 22:16 43.68344 124.33395 31968 ft 411 kts 268°
2026-04-20 22:17 43.67844 124.25517 31966 ft 411 kts 268°
2026-04-20 22:17 43.67401 124.17630 31974 ft 411 kts 269°
2026-04-20 22:18 43.66958 124.09748 31967 ft 412 kts 268°
2026-04-20 22:18 43.66506 124.01914 31975 ft 411 kts 268°
2026-04-20 22:19 43.66043 123.94040 31966 ft 411 kts 268°
2026-04-20 22:19 43.65573 123.86166 31980 ft 411 kts 268°
2026-04-20 22:20 43.65098 123.78286 31986 ft 411 kts 268°
2026-04-20 22:20 43.64618 123.70419 31978 ft 411 kts 268°
2026-04-20 22:21 43.64135 123.62594 31983 ft 411 kts 268°
2026-04-20 22:21 43.63645 123.54729 31990 ft 411 kts 268°
2026-04-20 22:22 43.63148 123.46863 31989 ft 411 kts 268°
2026-04-20 22:22 43.62647 123.39002 31993 ft 411 kts 268°
2026-04-20 22:23 43.62140 123.31137 31988 ft 411 kts 267°
2026-04-20 22:23 43.61630 123.23282 31996 ft 411 kts 267°
2026-04-20 22:24 43.61148 123.15415 31996 ft 411 kts 268°
2026-04-20 22:24 43.60763 123.07549 31998 ft 411 kts 268°
2026-04-20 22:25 43.60381 122.99729 31998 ft 411 kts 268°
2026-04-20 22:25 43.59981 122.91855 31999 ft 412 kts 268°
2026-04-20 22:26 43.59569 122.83976 31993 ft 412 kts 268°
2026-04-20 22:26 43.59150 122.76081 32002 ft 412 kts 268°
2026-04-20 22:27 43.58511 122.64233 31999 ft 413 kts 268°
2026-04-20 22:27 43.58078 122.56325 32003 ft 413 kts 268°
2026-04-20 22:28 43.57639 122.48408 32002 ft 414 kts 268°
2026-04-20 22:28 43.57195 122.40501 31995 ft 414 kts 268°
2026-04-20 22:29 43.56745 122.32582 31996 ft 414 kts 267°
2026-04-20 22:29 43.56140 122.24748 31995 ft 415 kts 260°
2026-04-20 22:30 43.54221 122.17182 32003 ft 421 kts 251°
2026-04-20 22:30 43.51208 122.10176 32003 ft 429 kts 241°
2026-04-20 22:31 43.47698 122.03506 31998 ft 430 kts 240°
2026-04-20 22:31 43.44181 121.96847 32004 ft 429 kts 240°
2026-04-20 22:32 43.40697 121.90194 32003 ft 428 kts 240°
2026-04-20 22:32 43.37224 121.83541 31998 ft 428 kts 240°
2026-04-20 22:33 43.33780 121.76947 32007 ft 427 kts 240°
2026-04-20 22:33 43.30314 121.70326 32003 ft 427 kts 240°
2026-04-20 22:34 43.26847 121.63716 32003 ft 426 kts 240°
2026-04-20 22:34 43.23377 121.57119 32007 ft 426 kts 240°
2026-04-20 22:35 43.19901 121.50523 32008 ft 427 kts 240°
2026-04-20 22:35 43.16420 121.43934 32008 ft 427 kts 240°
2026-04-20 22:36 43.12934 121.37349 32009 ft 427 kts 240°
2026-04-20 22:36 43.09439 121.30763 32006 ft 427 kts 240°
2026-04-20 22:37 43.05944 121.24191 31999 ft 427 kts 240°
2026-04-20 22:37 43.02446 121.17628 32010 ft 427 kts 240°
2026-04-20 22:38 42.98963 121.11108 32014 ft 427 kts 240°
2026-04-20 22:38 42.95456 121.04558 32010 ft 427 kts 240°
2026-04-20 22:39 42.91949 120.98022 32019 ft 427 kts 240°
2026-04-20 22:39 42.88441 120.91498 32015 ft 427 kts 240°
2026-04-20 22:40 42.84926 120.84973 32021 ft 426 kts 240°
2026-04-20 22:40 42.81410 120.78463 32022 ft 426 kts 240°
2026-04-20 22:41 42.77892 120.71963 32024 ft 426 kts 240°
2026-04-20 22:41 42.74371 120.65473 32021 ft 426 kts 240°
2026-04-20 22:42 42.70847 120.58991 32026 ft 426 kts 240°
2026-04-20 22:42 42.69105 120.55794 31829 ft 426 kts 243°
2026-04-20 22:42 42.67335 120.52553 31920 ft 427 kts 244°
2026-04-20 22:43 42.63777 120.46024 32017 ft 430 kts 244°
2026-04-20 22:43 42.60200 120.39484 32017 ft 431 kts 244°
2026-04-20 22:44 42.56622 120.32961 32027 ft 430 kts 244°
2026-04-20 22:44 42.53071 120.26506 32026 ft 428 kts 244°
2026-04-20 22:45 42.49514 120.20049 32023 ft 426 kts 244°
2026-04-20 22:45 42.45972 120.13633 32015 ft 425 kts 244°
2026-04-20 22:46 42.42436 120.07240 32031 ft 423 kts 244°
2026-04-20 22:46 42.38904 120.00864 32031 ft 423 kts 244°
2026-04-20 22:47 42.35367 119.94494 32025 ft 423 kts 244°
2026-04-20 22:47 42.31831 119.88142 32027 ft 423 kts 244°
2026-04-20 22:48 42.28296 119.81805 32045 ft 422 kts 244°
2026-04-20 22:48 42.24757 119.75477 32045 ft 422 kts 244°
2026-04-20 22:49 42.21221 119.69163 32044 ft 421 kts 244°
2026-04-20 22:49 42.17690 119.62869 32047 ft 420 kts 244°
2026-04-20 22:50 42.14160 119.56598 32054 ft 420 kts 244°
2026-04-20 22:50 42.10628 119.50331 32054 ft 420 kts 244°
2026-04-20 22:51 42.07094 119.44074 32057 ft 420 kts 244°
2026-04-20 22:51 42.03579 119.37863 32062 ft 420 kts 244°
2026-04-20 22:52 42.00036 119.31616 32061 ft 420 kts 244°
2026-04-20 22:52 41.96492 119.25381 32065 ft 419 kts 244°
2026-04-20 22:53 41.92951 119.19162 32058 ft 419 kts 244°
2026-04-20 22:53 41.89399 119.12939 32061 ft 420 kts 244°
2026-04-20 22:54 41.85847 119.06729 32063 ft 420 kts 244°
2026-04-20 22:54 41.82288 119.00518 32065 ft 419 kts 244°
2026-04-20 22:55 41.79330 118.95368 32065 ft 419 kts 244°
2026-04-20 22:55 41.75771 118.89180 32079 ft 420 kts 244°
2026-04-20 22:56 41.72198 118.82977 32070 ft 421 kts 244°
2026-04-20 22:56 41.68612 118.76768 32083 ft 422 kts 243°
2026-04-20 22:57 41.65016 118.70556 32105 ft 422 kts 243°
2026-04-20 22:57 41.61424 118.64360 32103 ft 422 kts 243°
2026-04-20 22:58 41.57820 118.58158 32095 ft 422 kts 243°
2026-04-20 22:58 41.54215 118.51966 32101 ft 422 kts 243°
2026-04-20 22:59 41.50617 118.45795 32106 ft 421 kts 243°
2026-04-20 22:59 41.47461 118.39348 32112 ft 412 kts 249°
2026-04-20 23:00 41.44484 118.32805 32113 ft 413 kts 248°
2026-04-20 23:00 41.41500 118.26310 32116 ft 414 kts 248°
2026-04-20 23:01 41.38484 118.19767 32116 ft 415 kts 248°
2026-04-20 23:01 41.35462 118.13223 32122 ft 415 kts 248°
2026-04-20 23:02 41.32435 118.06678 32134 ft 416 kts 248°
2026-04-20 23:02 41.29397 118.00123 32131 ft 416 kts 248°
2026-04-20 23:03 41.26353 117.93575 32127 ft 416 kts 248°
2026-04-20 23:03 41.23307 117.87035 32126 ft 416 kts 248°
2026-04-20 23:04 41.20263 117.80513 32137 ft 415 kts 248°
2026-04-20 23:04 41.17219 117.73996 32133 ft 415 kts 248°
2026-04-20 23:05 41.14168 117.67485 32151 ft 415 kts 248°
2026-04-20 23:05 41.11122 117.61000 32152 ft 413 kts 248°
2026-04-20 23:06 41.08080 117.54532 32148 ft 414 kts 247°
2026-04-20 23:06 41.04810 117.48206 32143 ft 427 kts 237°
2026-04-20 23:07 41.02588 117.45502 32157 ft 440 kts 230°
2026-04-20 23:07 41.00094 117.43086 32145 ft 450 kts 225°
2026-04-20 23:07 40.97319 117.41140 32147 ft 467 kts 214°
2026-04-20 23:07 40.94267 117.39591 32139 ft 471 kts 213°
2026-04-20 23:08 40.88099 117.36626 32145 ft 471 kts 213°
2026-04-20 23:08 40.81986 117.33572 32139 ft 469 kts 213°
2026-04-20 23:09 40.75919 117.30457 32125 ft 461 kts 217°
2026-04-20 23:09 40.73242 117.28374 32138 ft 436 kts 230°
2026-04-20 23:09 40.71053 117.25704 32149 ft 424 kts 238°
2026-04-20 23:10 40.67853 117.19374 32171 ft 410 kts 251°
2026-04-20 23:10 40.65274 117.12583 32157 ft 417 kts 251°
2026-04-20 23:11 40.62631 117.05737 32145 ft 419 kts 251°
2026-04-20 23:11 40.60007 116.99035 32149 ft 412 kts 250°
2026-04-20 23:12 40.57376 116.92334 32151 ft 413 kts 250°
2026-04-20 23:12 40.54732 116.85613 32152 ft 414 kts 250°
2026-04-20 23:13 40.52077 116.78880 32139 ft 415 kts 250°
2026-04-20 23:13 40.49410 116.72132 32131 ft 415 kts 250°
2026-04-20 23:14 40.46746 116.65414 32152 ft 415 kts 250°
2026-04-20 23:14 40.44091 116.58729 32141 ft 416 kts 250°
2026-04-20 23:15 40.41408 116.51983 32147 ft 417 kts 250°
2026-04-20 23:15 40.38712 116.45225 32140 ft 418 kts 250°
2026-04-20 23:16 40.36011 116.38470 32152 ft 419 kts 250°
2026-04-20 23:16 40.33014 116.31866 32144 ft 426 kts 243°
2026-04-20 23:17 40.29253 116.25762 32144 ft 432 kts 238°
2026-04-20 23:17 40.25349 116.19793 32152 ft 431 kts 238°
2026-04-20 23:18 40.21462 116.13826 32152 ft 430 kts 238°
2026-04-20 23:18 40.17583 116.07869 32148 ft 430 kts 238°
2026-04-20 23:19 40.13725 116.01948 32157 ft 430 kts 238°
2026-04-20 23:19 40.09847 115.96008 32146 ft 430 kts 238°
2026-04-20 23:20 40.05961 115.90067 32153 ft 431 kts 238°
2026-04-20 23:20 40.02056 115.84109 32168 ft 432 kts 238°
2026-04-20 23:21 39.98143 115.78152 32163 ft 432 kts 237°
2026-04-20 23:21 39.94228 115.72202 32164 ft 433 kts 237°
2026-04-20 23:22 39.90303 115.66249 32153 ft 433 kts 237°
2026-04-20 23:22 39.86377 115.60304 32168 ft 433 kts 237°
2026-04-20 23:23 39.82442 115.54361 32157 ft 433 kts 237°
2026-04-20 23:23 39.78504 115.48415 32164 ft 432 kts 238°
2026-04-20 23:24 39.75091 115.42155 32170 ft 423 kts 245°
2026-04-20 23:24 39.72373 115.35445 32169 ft 419 kts 249°
2026-04-20 23:25 39.69725 115.28702 32168 ft 419 kts 249°
2026-04-20 23:25 39.67056 115.21951 32182 ft 421 kts 249°
2026-04-20 23:26 39.64364 115.15173 32155 ft 423 kts 248°
2026-04-20 23:26 39.61659 115.08381 32178 ft 425 kts 248°
2026-04-20 23:27 39.58938 115.01570 32182 ft 426 kts 248°
2026-04-20 23:27 39.56212 114.94760 32189 ft 426 kts 248°
2026-04-20 23:28 39.53473 114.87928 32179 ft 427 kts 248°
2026-04-20 23:28 39.50747 114.81146 32190 ft 427 kts 248°
2026-04-20 23:29 39.48001 114.74327 32194 ft 427 kts 248°
2026-04-20 23:29 39.45248 114.67511 32187 ft 427 kts 248°
2026-04-20 23:30 39.42495 114.60705 32197 ft 427 kts 248°
2026-04-20 23:30 39.39739 114.53905 32206 ft 427 kts 248°
2026-04-20 23:31 39.36969 114.47116 32188 ft 426 kts 248°
2026-04-20 23:31 39.34178 114.40340 32193 ft 427 kts 247°
2026-04-20 23:32 39.31385 114.33565 32196 ft 428 kts 247°
2026-04-20 23:32 39.28594 114.26770 32206 ft 429 kts 247°
2026-04-20 23:33 39.25788 114.19974 32195 ft 428 kts 245°
2026-04-20 23:33 39.23940 114.16905 32202 ft 441 kts 231°
2026-04-20 23:33 39.21548 114.14358 32208 ft 452 kts 223°
2026-04-20 23:34 39.18816 114.12264 32202 ft 464 kts 213°
2026-04-20 23:34 39.15715 114.10914 32225 ft 473 kts 204°
2026-04-20 23:34 39.09357 114.08775 32195 ft 476 kts 203°
2026-04-20 23:35 38.99742 114.05499 32176 ft 476 kts 204°
2026-04-20 23:36 38.93345 114.03229 32160 ft 475 kts 204°
2026-04-20 23:36 38.87035 114.00981 32177 ft 473 kts 204°
2026-04-20 23:37 38.80684 113.98730 32187 ft 474 kts 204°
2026-04-20 23:37 38.74328 113.96480 32167 ft 474 kts 204°
2026-04-20 23:38 38.67972 113.94237 32174 ft 474 kts 204°
2026-04-20 23:38 38.61612 113.91999 32150 ft 473 kts 204°
2026-04-20 23:39 38.55281 113.89785 32166 ft 470 kts 204°
2026-04-20 23:39 38.48969 113.87582 32174 ft 471 kts 204°
2026-04-20 23:40 38.42635 113.85370 32169 ft 470 kts 204°
2026-04-20 23:40 38.36359 113.83186 32168 ft 471 kts 204°
2026-04-20 23:41 38.30040 113.80991 32171 ft 471 kts 204°
2026-04-20 23:41 38.23718 113.78806 32158 ft 471 kts 204°
2026-04-20 23:42 38.17422 113.76631 32176 ft 468 kts 204°
2026-04-20 23:42 38.11135 113.74471 32188 ft 468 kts 203°
2026-04-20 23:43 38.04837 113.72307 32175 ft 469 kts 203°
2026-04-20 23:43 37.99606 113.70509 32189 ft 469 kts 203°
2026-04-20 23:44 37.93299 113.68346 32188 ft 469 kts 203°
2026-04-20 23:44 37.86998 113.66190 32181 ft 469 kts 203°
2026-04-20 23:45 37.80695 113.64037 32187 ft 468 kts 202°
2026-04-20 23:45 37.74411 113.61896 32186 ft 467 kts 202°
2026-04-20 23:46 37.68182 113.59776 32184 ft 466 kts 202°
2026-04-20 23:46 37.61927 113.57651 32183 ft 465 kts 202°
2026-04-20 23:47 37.55667 113.55527 32184 ft 465 kts 202°
2026-04-20 23:47 37.49423 113.53412 32193 ft 465 kts 202°
2026-04-20 23:48 37.43163 113.51295 32189 ft 466 kts 202°
2026-04-20 23:48 37.36881 113.49175 32189 ft 468 kts 202°
2026-04-20 23:49 37.30579 113.47052 32185 ft 470 kts 202°
2026-04-20 23:49 37.24252 113.44924 32196 ft 471 kts 201°
2026-04-20 23:50 37.17952 113.42810 32183 ft 472 kts 201°
2026-04-20 23:50 37.11616 113.40688 32179 ft 471 kts 201°
2026-04-20 23:51 37.05268 113.38565 32181 ft 472 kts 201°
2026-04-20 23:51 36.98918 113.36444 32185 ft 472 kts 201°
2026-04-20 23:52 36.92580 113.34332 32188 ft 471 kts 201°
2026-04-20 23:52 36.86248 113.32225 32201 ft 471 kts 201°
2026-04-20 23:53 36.79916 113.30122 32204 ft 471 kts 201°
2026-04-20 23:53 36.73578 113.28021 32186 ft 471 kts 201°
2026-04-20 23:54 36.67260 113.25929 32196 ft 470 kts 201°
2026-04-20 23:54 36.60948 113.23843 32195 ft 469 kts 201°
2026-04-20 23:55 36.54655 113.21766 32185 ft 467 kts 201°
2026-04-20 23:55 36.48394 113.19705 32198 ft 465 kts 201°
2026-04-20 23:56 36.42138 113.17646 32208 ft 465 kts 201°
2026-04-20 23:56 36.35879 113.15590 32204 ft 467 kts 201°
2026-04-20 23:57 36.29590 113.13529 32205 ft 468 kts 201°
2026-04-20 23:57 36.23321 113.11351 32211 ft 466 kts 205°
2026-04-20 23:58 36.17362 113.08288 32217 ft 464 kts 208°
2026-04-20 23:58 36.11426 113.05132 32207 ft 465 kts 208°
2026-04-20 23:59 36.05454 113.02000 32215 ft 467 kts 208°
2026-04-20 23:59 35.99491 112.98894 32216 ft 468 kts 208°
2026-04-21 00:00 35.93481 112.95769 32207 ft 469 kts 208°
2026-04-21 00:00 35.87462 112.92643 32213 ft 469 kts 208°
2026-04-21 00:01 35.81447 112.89523 32221 ft 470 kts 208°
2026-04-21 00:01 35.75414 112.86393 32227 ft 470 kts 208°
2026-04-21 00:02 35.69384 112.83252 32226 ft 471 kts 208°
2026-04-21 00:02 35.63330 112.80103 32230 ft 472 kts 208°
2026-04-21 00:03 35.57272 112.76959 32241 ft 473 kts 208°
2026-04-21 00:03 35.51203 112.73795 32234 ft 474 kts 208°
2026-04-21 00:04 35.45173 112.70650 32240 ft 474 kts 208°
2026-04-21 00:04 35.39100 112.67492 32235 ft 473 kts 208°
2026-04-21 00:05 35.33035 112.64344 32227 ft 473 kts 208°
2026-04-21 00:05 35.26972 112.61201 32234 ft 473 kts 207°
2026-04-21 00:06 35.20909 112.58064 32238 ft 472 kts 207°
2026-04-21 00:06 35.14897 112.54984 32233 ft 472 kts 207°
2026-04-21 00:07 35.08757 112.52093 32233 ft 475 kts 202°
2026-04-21 00:07 35.02414 112.49800 32233 ft 476 kts 201°
2026-04-21 00:08 34.96066 112.47506 32236 ft 476 kts 201°
2026-04-21 00:08 34.89715 112.45180 32229 ft 476 kts 201°
2026-04-21 00:09 34.83367 112.42851 32229 ft 476 kts 201°
2026-04-21 00:09 34.76975 112.40694 32227 ft 480 kts 195°
2026-04-21 00:10 34.70289 112.39876 32233 ft 487 kts 186°
2026-04-21 00:10 34.63486 112.40308 32232 ft 491 kts 181°
2026-04-21 00:11 34.56673 112.40965 32233 ft 491 kts 181°
2026-04-21 00:11 34.49868 112.41592 32231 ft 490 kts 181°
2026-04-21 00:12 34.43060 112.42184 32236 ft 490 kts 181°
2026-04-21 00:12 34.36304 112.42759 32241 ft 490 kts 181°
2026-04-21 00:13 34.29495 112.43339 32235 ft 490 kts 181°
2026-04-21 00:13 34.22678 112.43919 32240 ft 491 kts 181°
2026-04-21 00:14 34.15864 112.44499 32236 ft 491 kts 181°
2026-04-21 00:14 34.09043 112.45081 32252 ft 492 kts 181°
2026-04-21 00:15 34.02214 112.45661 32245 ft 492 kts 181°
2026-04-21 00:15 33.95384 112.46239 32243 ft 492 kts 181°
2026-04-21 00:16 33.88594 112.46815 32242 ft 492 kts 181°
2026-04-21 00:16 33.81757 112.47394 32239 ft 493 kts 181°
2026-04-21 00:17 33.74916 112.47972 32236 ft 493 kts 181°
2026-04-21 00:17 33.68069 112.48549 32241 ft 493 kts 181°
2026-04-21 00:18 33.61231 112.49125 32230 ft 492 kts 181°
2026-04-21 00:18 33.54409 112.49706 32228 ft 491 kts 181°
2026-04-21 00:19 33.47596 112.50285 32223 ft 490 kts 181°
2026-04-21 00:19 33.40801 112.50861 32224 ft 489 kts 181°
2026-04-21 00:20 33.34007 112.51436 32227 ft 489 kts 180°
2026-04-21 00:20 33.27219 112.52010 32215 ft 489 kts 180°
2026-04-21 00:21 33.20424 112.52583 32217 ft 489 kts 180°
2026-04-21 00:21 33.13628 112.53156 32210 ft 490 kts 180°
2026-04-21 00:22 33.06835 112.53728 32203 ft 490 kts 180°
2026-04-21 00:22 33.00034 112.54300 32206 ft 490 kts 180°
2026-04-21 00:23 32.93241 112.54517 32203 ft 485 kts 188°
2026-04-21 00:23 32.86616 112.53314 32201 ft 479 kts 198°
2026-04-21 00:24 32.80242 112.51053 32202 ft 478 kts 200°
2026-04-21 00:24 32.73827 112.48914 32200 ft 480 kts 199°
2026-04-21 00:25 32.67371 112.46854 32197 ft 481 kts 199°
2026-04-21 00:25 32.60909 112.44779 32194 ft 481 kts 199°
2026-04-21 00:26 32.54444 112.42688 32197 ft 482 kts 199°
2026-04-21 00:26 32.47977 112.40594 32187 ft 482 kts 199°
2026-04-21 00:27 32.41516 112.38507 32189 ft 481 kts 199°
2026-04-21 00:27 32.35088 112.36433 32187 ft 481 kts 199°
2026-04-21 00:28 32.28627 112.34352 32185 ft 480 kts 199°
2026-04-21 00:28 32.22176 112.32277 32182 ft 480 kts 199°
2026-04-21 00:29 32.15724 112.30205 32184 ft 480 kts 199°
2026-04-21 00:29 32.09265 112.28133 32192 ft 481 kts 199°
2026-04-21 00:30 32.02688 112.26521 32191 ft 484 kts 194°
2026-04-21 00:30 31.97160 112.25431 32184 ft 485 kts 193°
2026-04-21 00:31 31.89431 112.23895 32188 ft 485 kts 194°
2026-04-21 00:31 31.83853 112.22767 32178 ft 485 kts 194°
2026-04-21 00:32 31.77196 112.21415 32186 ft 485 kts 194°
2026-04-21 00:32 31.70579 112.20071 32186 ft 485 kts 194°
2026-04-21 00:33 31.63915 112.18722 32181 ft 486 kts 194°
2026-04-21 00:33 31.57242 112.17374 32176 ft 486 kts 194°
2026-04-21 00:34 31.50564 112.16027 32179 ft 486 kts 193°
2026-04-21 00:34 31.43927 112.14690 32174 ft 486 kts 193°
2026-04-21 00:35 31.37264 112.13296 32170 ft 485 kts 195°
2026-04-21 00:35 31.30651 112.11661 32165 ft 485 kts 196°
2026-04-21 00:36 31.24052 112.09993 32166 ft 485 kts 196°
2026-04-21 00:36 31.17448 112.08362 32168 ft 485 kts 195°
2026-04-21 00:37 31.10824 112.06747 32164 ft 486 kts 195°
2026-04-21 00:37 31.04238 112.05148 32158 ft 486 kts 195°
2026-04-21 00:38 30.97617 112.03540 32152 ft 486 kts 195°
2026-04-21 00:38 30.90993 112.01933 32158 ft 486 kts 195°
2026-04-21 00:39 30.84362 112.00327 32146 ft 487 kts 195°
2026-04-21 00:39 30.77731 111.98722 32148 ft 487 kts 196°
2026-04-21 00:40 30.71096 111.97119 32152 ft 486 kts 196°
2026-04-21 00:40 30.64510 111.95530 32146 ft 486 kts 196°
2026-04-21 00:41 30.57877 111.93933 32146 ft 486 kts 196°
2026-04-21 00:41 30.51258 111.92341 32147 ft 486 kts 196°
2026-04-21 00:42 30.44639 111.90751 32147 ft 486 kts 196°
2026-04-21 00:42 30.38018 111.89163 32149 ft 486 kts 196°
2026-04-21 00:43 30.31396 111.87576 32142 ft 486 kts 196°
2026-04-21 00:43 30.24777 111.85993 32145 ft 485 kts 196°
2026-04-21 00:44 30.18208 111.84424 32141 ft 485 kts 196°
2026-04-21 00:44 30.11596 111.82846 32143 ft 485 kts 196°
2026-04-21 00:45 30.01689 111.80488 32142 ft 484 kts 196°
2026-04-21 00:45 29.95094 111.78919 32142 ft 484 kts 196°
2026-04-21 00:46 29.88494 111.77352 32144 ft 484 kts 196°
2026-04-21 00:46 29.81894 111.75787 32144 ft 485 kts 196°
2026-04-21 00:47 29.75282 111.74222 32136 ft 485 kts 196°
2026-04-21 00:47 29.68672 111.72659 32136 ft 485 kts 196°
2026-04-21 00:48 29.62060 111.71098 32139 ft 485 kts 196°
2026-04-21 00:48 29.55445 111.69538 32138 ft 485 kts 196°
2026-04-21 00:49 29.48825 111.67978 32133 ft 485 kts 196°
2026-04-21 00:49 29.42254 111.66433 32131 ft 485 kts 196°
2026-04-21 00:50 29.35624 111.64936 32135 ft 487 kts 193°
2026-04-21 00:50 29.28816 111.64368 32139 ft 492 kts 187°
2026-04-21 00:51 29.21972 111.64082 32134 ft 492 kts 187°
2026-04-21 00:51 29.15117 111.63759 32138 ft 492 kts 187°
2026-04-21 00:52 29.08274 111.63408 32134 ft 493 kts 187°
2026-04-21 00:52 29.01421 111.63052 32137 ft 493 kts 187°
2026-04-21 00:53 28.94562 111.62699 32137 ft 493 kts 187°
2026-04-21 00:53 28.87752 111.62350 32137 ft 493 kts 187°
2026-04-21 00:54 28.80912 111.61904 32136 ft 491 kts 190°
2026-04-21 00:54 28.74119 111.61101 32141 ft 490 kts 191°
2026-04-21 00:55 28.67334 111.60279 32134 ft 490 kts 190°
2026-04-21 00:55 28.60548 111.59519 32137 ft 490 kts 190°
2026-04-21 00:56 28.53748 111.58777 32137 ft 490 kts 190°
2026-04-21 00:56 28.46963 111.58034 32140 ft 489 kts 190°
2026-04-21 00:57 28.40186 111.57295 32133 ft 489 kts 190°
2026-04-21 00:57 28.33413 111.56579 32136 ft 489 kts 190°
2026-04-21 00:58 28.26634 111.55867 32142 ft 489 kts 190°
2026-04-21 00:58 28.19891 111.55156 32141 ft 489 kts 190°
2026-04-21 00:59 28.13111 111.54442 32137 ft 489 kts 191°
2026-04-21 00:59 28.06328 111.53728 32125 ft 489 kts 191°
2026-04-21 01:00 27.99544 111.53015 32121 ft 489 kts 191°
2026-04-21 01:00 27.92774 111.52303 32121 ft 489 kts 191°
2026-04-21 01:01 27.86000 111.51592 32126 ft 489 kts 191°
2026-04-21 01:01 27.79225 111.50881 32121 ft 489 kts 191°
2026-04-21 01:02 27.72452 111.50172 32106 ft 489 kts 191°
2026-04-21 01:02 27.65673 111.49465 32116 ft 488 kts 191°
2026-04-21 01:03 27.58918 111.48759 32108 ft 488 kts 191°
2026-04-21 01:03 27.52157 111.48054 32110 ft 487 kts 191°
2026-04-21 01:04 27.45406 111.47351 32115 ft 487 kts 191°
2026-04-21 01:04 27.38643 111.46647 32108 ft 488 kts 191°
2026-04-21 01:05 27.31928 111.45949 32102 ft 488 kts 192°
2026-04-21 01:05 27.25166 111.45248 32100 ft 489 kts 192°
2026-04-21 01:06 27.18381 111.44545 32090 ft 489 kts 192°
2026-04-21 01:06 27.11605 111.43845 32107 ft 488 kts 192°
2026-04-21 01:07 27.04841 111.43145 32096 ft 488 kts 192°
2026-04-21 01:07 26.98072 111.42446 32099 ft 489 kts 192°
2026-04-21 01:08 26.91557 111.40796 32099 ft 474 kts 207°
2026-04-21 01:08 26.85740 111.37513 32103 ft 464 kts 219°
2026-04-21 01:09 26.80367 111.33491 32096 ft 465 kts 219°
2026-04-21 01:09 26.74979 111.29484 32100 ft 466 kts 219°
2026-04-21 01:10 26.69549 111.25504 32093 ft 467 kts 218°
2026-04-21 01:10 26.64100 111.21530 32085 ft 468 kts 218°
2026-04-21 01:11 26.58651 111.17557 32082 ft 467 kts 218°
2026-04-21 01:11 26.53137 111.13702 32081 ft 469 kts 216°
2026-04-21 01:12 26.47544 111.09932 32092 ft 470 kts 216°
2026-04-21 01:12 26.41954 111.06154 32090 ft 470 kts 216°
2026-04-21 01:13 26.36355 111.02351 32064 ft 471 kts 216°
2026-04-21 01:13 26.30760 110.98547 32085 ft 472 kts 217°
2026-04-21 01:14 26.25147 110.94734 32068 ft 473 kts 217°
2026-04-21 01:14 26.19535 110.90927 32073 ft 472 kts 216°
2026-04-21 01:15 26.13959 110.87152 32079 ft 472 kts 216°
2026-04-21 01:15 26.08330 110.83343 32081 ft 475 kts 216°
2026-04-21 01:16 26.02688 110.79522 32080 ft 476 kts 217°
2026-04-21 01:16 25.97043 110.75684 32067 ft 475 kts 217°
2026-04-21 01:17 25.91413 110.71858 32056 ft 474 kts 217°
2026-04-21 01:17 25.85794 110.68043 32069 ft 473 kts 217°
2026-04-21 01:18 25.81130 110.64884 32070 ft 473 kts 217°
2026-04-21 01:18 25.75502 110.61074 32067 ft 474 kts 216°
2026-04-21 01:19 25.69897 110.57215 32056 ft 474 kts 217°
2026-04-21 01:19 25.64300 110.53313 32058 ft 475 kts 217°
2026-04-21 01:20 25.58691 110.49423 32047 ft 476 kts 217°
2026-04-21 01:20 25.53112 110.45490 32046 ft 475 kts 218°
2026-04-21 01:21 25.47637 110.41399 32038 ft 474 kts 219°
2026-04-21 01:21 25.42170 110.37357 32054 ft 475 kts 218°
2026-04-21 01:22 25.36681 110.33270 32030 ft 475 kts 219°
2026-04-21 01:22 25.31212 110.29182 32049 ft 475 kts 219°
2026-04-21 01:23 25.25720 110.25086 32021 ft 476 kts 219°
2026-04-21 01:23 25.20234 110.21004 32039 ft 475 kts 218°
2026-04-21 01:24 25.14756 110.16918 32030 ft 475 kts 219°
2026-04-21 01:24 25.09290 110.12833 32040 ft 474 kts 219°
2026-04-21 01:25 25.03824 110.08755 32025 ft 474 kts 219°
2026-04-21 01:25 24.98364 110.04688 32023 ft 474 kts 219°
2026-04-21 01:26 24.92931 110.00645 32012 ft 474 kts 219°
2026-04-21 01:26 24.87460 109.96578 32004 ft 475 kts 219°
2026-04-21 01:27 24.81967 109.92502 31996 ft 475 kts 219°
2026-04-21 01:27 24.76478 109.88429 32004 ft 475 kts 219°
2026-04-21 01:28 24.70984 109.84358 31984 ft 476 kts 219°
2026-04-21 01:28 24.65492 109.80291 31979 ft 476 kts 219°
2026-04-21 01:29 24.60005 109.76221 31972 ft 475 kts 218°
2026-04-21 01:29 24.54529 109.72160 31986 ft 475 kts 219°
2026-04-21 01:30 24.49041 109.68094 31968 ft 476 kts 219°
2026-04-21 01:30 24.43547 109.64030 31971 ft 476 kts 218°
2026-04-21 01:31 24.38054 109.59972 31970 ft 477 kts 218°
2026-04-21 01:31 24.32549 109.55915 31983 ft 477 kts 218°
2026-04-21 01:32 24.27062 109.51877 31962 ft 478 kts 218°
2026-04-21 01:32 24.21504 109.47789 31965 ft 478 kts 218°
2026-04-21 01:33 24.16021 109.43762 31960 ft 478 kts 218°
2026-04-21 01:33 24.10495 109.39706 31973 ft 478 kts 218°
2026-04-21 01:34 24.04967 109.35653 31983 ft 480 kts 218°
2026-04-21 01:34 23.99413 109.31583 31960 ft 480 kts 218°
2026-04-21 01:35 23.93872 109.27531 31964 ft 479 kts 218°
2026-04-21 01:35 23.88341 109.23488 31964 ft 478 kts 218°
2026-04-21 01:36 23.82820 109.19456 31970 ft 477 kts 218°
2026-04-21 01:36 23.77293 109.15423 31965 ft 478 kts 218°
2026-04-21 01:37 23.71986 109.11087 31969 ft 476 kts 222°
2026-04-21 01:37 23.66777 109.06596 31968 ft 478 kts 222°
2026-04-21 01:38 23.61551 109.02107 31973 ft 479 kts 222°
2026-04-21 01:38 23.56298 108.97624 31959 ft 480 kts 222°
2026-04-21 01:39 23.51041 108.93149 31967 ft 480 kts 221°
2026-04-21 01:39 23.45780 108.88675 31971 ft 480 kts 221°
2026-04-21 01:40 23.40516 108.84202 31969 ft 480 kts 221°
2026-04-21 01:40 23.35282 108.79757 31973 ft 480 kts 221°
2026-04-21 01:41 23.29982 108.75261 31974 ft 480 kts 221°
2026-04-21 01:41 23.24742 108.70821 31974 ft 480 kts 221°
2026-04-21 01:42 23.19464 108.66346 31959 ft 482 kts 221°
2026-04-21 01:42 23.14186 108.61870 31966 ft 481 kts 221°
2026-04-21 01:43 23.08914 108.57406 31974 ft 481 kts 221°
2026-04-21 01:43 23.03637 108.52935 31976 ft 481 kts 221°
2026-04-21 01:44 22.98351 108.48466 31965 ft 481 kts 221°
2026-04-21 01:44 22.93075 108.44011 31967 ft 480 kts 221°
2026-04-21 01:45 22.87801 108.39561 31962 ft 480 kts 221°
2026-04-21 01:45 22.82554 108.35137 31964 ft 480 kts 221°
2026-04-21 01:46 22.77258 108.30678 31974 ft 482 kts 221°
2026-04-21 01:46 22.71994 108.26249 31974 ft 482 kts 221°
2026-04-21 01:47 22.66693 108.21794 31983 ft 482 kts 221°
2026-04-21 01:47 22.61531 108.17207 31973 ft 476 kts 231°
2026-04-21 01:48 22.59567 108.14355 31987 ft 471 kts 242°
2026-04-21 01:48 22.58099 108.11207 31994 ft 469 kts 250°
2026-04-21 01:48 22.56585 108.04400 31988 ft 466 kts 261°
2026-04-21 01:49 22.55454 107.97469 31977 ft 469 kts 261°
2026-04-21 01:49 22.54269 107.90504 31967 ft 471 kts 260°
2026-04-21 01:50 22.53046 107.83571 31957 ft 472 kts 260°
2026-04-21 01:50 22.51802 107.76607 31955 ft 471 kts 260°
2026-04-21 01:51 22.50556 107.69641 31951 ft 470 kts 260°
2026-04-21 01:51 22.49312 107.62697 31957 ft 470 kts 260°
2026-04-21 01:52 22.47454 107.52348 31957 ft 469 kts 260°
2026-04-21 01:53 22.46208 107.45431 31959 ft 469 kts 260°
2026-04-21 01:53 22.44957 107.38501 31953 ft 469 kts 260°
2026-04-21 01:54 22.43702 107.31574 31959 ft 469 kts 260°
2026-04-21 01:54 22.42455 107.24696 31959 ft 469 kts 260°
2026-04-21 01:55 22.41221 107.17765 31957 ft 470 kts 260°
2026-04-21 01:55 22.39993 107.10822 31961 ft 470 kts 260°
2026-04-21 01:56 22.38759 107.03885 31960 ft 470 kts 260°
2026-04-21 01:56 22.37526 106.96985 31968 ft 470 kts 260°
2026-04-21 01:57 22.36040 106.90110 31966 ft 471 kts 250°
2026-04-21 01:57 22.32847 106.83912 31976 ft 477 kts 236°
2026-04-21 01:58 22.28220 106.78694 31970 ft 483 kts 226°
2026-04-21 01:58 22.23347 106.73695 31967 ft 483 kts 227°
2026-04-21 01:59 22.18544 106.68617 31969 ft 483 kts 227°
2026-04-21 01:59 22.13442 106.63852 31984 ft 486 kts 222°
2026-04-21 02:00 22.08149 106.59290 31975 ft 487 kts 222°
2026-04-21 02:00 22.02903 106.54727 31981 ft 487 kts 223°
2026-04-21 02:01 21.97645 106.50127 31979 ft 487 kts 223°
2026-04-21 02:01 21.92381 106.45517 31987 ft 487 kts 223°
2026-04-21 02:02 21.87129 106.40905 31990 ft 487 kts 223°
2026-04-21 02:02 21.81867 106.36288 31987 ft 488 kts 223°
2026-04-21 02:03 21.76599 106.31674 31983 ft 488 kts 223°
2026-04-21 02:03 21.71330 106.27063 31977 ft 488 kts 223°
2026-04-21 02:04 21.66049 106.22446 31978 ft 490 kts 223°
2026-04-21 02:04 21.60758 106.17826 31977 ft 489 kts 223°
2026-04-21 02:05 21.55504 106.13239 31972 ft 489 kts 223°
2026-04-21 02:05 21.50220 106.08634 31967 ft 489 kts 223°
2026-04-21 02:06 21.45827 106.04808 31966 ft 489 kts 223°
2026-04-21 02:06 21.40535 106.00203 31964 ft 490 kts 223°
2026-04-21 02:07 21.35239 105.95599 31957 ft 490 kts 223°
2026-04-21 02:07 21.29934 105.90990 31959 ft 491 kts 223°
2026-04-21 02:08 21.24676 105.86335 31953 ft 488 kts 227°
2026-04-21 02:08 21.20592 105.80627 31962 ft 480 kts 243°
2026-04-21 02:09 21.17997 105.74089 31966 ft 476 kts 253°
2026-04-21 02:09 21.15823 105.67373 31955 ft 478 kts 253°
2026-04-21 02:10 21.13613 105.60642 31957 ft 479 kts 253°
2026-04-21 02:10 21.11375 105.53964 31955 ft 480 kts 252°
2026-04-21 02:11 21.09107 105.47249 31956 ft 480 kts 252°
2026-04-21 02:11 21.06821 105.40493 31950 ft 479 kts 252°
2026-04-21 02:12 21.04568 105.33843 31958 ft 478 kts 252°
2026-04-21 02:12 21.02303 105.27157 31953 ft 478 kts 252°
2026-04-21 02:13 21.00036 105.20475 31958 ft 477 kts 252°
2026-04-21 02:13 20.97768 105.13802 31965 ft 478 kts 252°
2026-04-21 02:14 20.95492 105.07114 31974 ft 478 kts 252°
2026-04-21 02:14 20.93214 105.00434 31974 ft 478 kts 252°
2026-04-21 02:15 20.90931 104.93745 31966 ft 479 kts 252°
2026-04-21 02:15 20.88646 104.87058 31982 ft 478 kts 252°
2026-04-21 02:16 20.86359 104.80377 31985 ft 478 kts 252°
2026-04-21 02:16 20.83933 104.73762 31979 ft 479 kts 245°
2026-04-21 02:17 20.79942 104.68006 31995 ft 487 kts 229°
2026-04-21 02:17 20.74603 104.63463 31988 ft 494 kts 219°
2026-04-21 02:18 20.68967 104.59255 31989 ft 494 kts 219°
2026-04-21 02:18 20.63395 104.55027 31993 ft 494 kts 220°
2026-04-21 02:19 20.57826 104.50741 31989 ft 494 kts 220°
2026-04-21 02:19 20.52265 104.46446 31996 ft 493 kts 220°
2026-04-21 02:20 20.46699 104.42159 31994 ft 493 kts 220°
2026-04-21 02:20 20.41123 104.37858 32045 ft 496 kts 220°
2026-04-21 02:20 20.38340 104.35679 32308 ft 497 kts 220°
2026-04-21 02:21 20.35563 104.33494 32676 ft 495 kts 220°
2026-04-21 02:21 20.32805 104.31321 33132 ft 492 kts 220°
2026-04-21 02:21 20.30059 104.29158 33580 ft 490 kts 221°
2026-04-21 02:21 20.27318 104.27003 33935 ft 490 kts 221°
2026-04-21 02:22 20.24563 104.24838 33896 ft 492 kts 221°
2026-04-21 02:22 20.19062 104.20528 33918 ft 490 kts 221°
2026-04-21 02:23 20.13579 104.16241 33930 ft 488 kts 221°
2026-04-21 02:23 20.08115 104.11967 33932 ft 488 kts 221°
2026-04-21 02:24 20.02644 104.07692 33929 ft 488 kts 221°
2026-04-21 02:24 19.97206 104.03443 33920 ft 488 kts 221°
2026-04-21 02:25 19.91690 103.99143 33926 ft 489 kts 221°
2026-04-21 02:25 19.86205 103.94871 33939 ft 490 kts 221°
2026-04-21 02:26 19.80738 103.90615 33936 ft 491 kts 221°
2026-04-21 02:26 19.75216 103.86320 33938 ft 492 kts 221°
2026-04-21 02:27 19.69696 103.82029 33942 ft 491 kts 221°
2026-04-21 02:27 19.64172 103.77740 33930 ft 492 kts 221°
2026-04-21 02:28 19.58661 103.73463 33944 ft 490 kts 221°
2026-04-21 02:28 19.53170 103.69209 33945 ft 488 kts 221°
2026-04-21 02:29 19.47696 103.64968 33944 ft 487 kts 221°
2026-04-21 02:29 19.42233 103.60740 33955 ft 486 kts 220°
2026-04-21 02:30 19.36746 103.56538 33965 ft 487 kts 220°
2026-04-21 02:30 19.31248 103.52355 33968 ft 487 kts 220°
2026-04-21 02:31 19.25742 103.48167 33969 ft 488 kts 220°
2026-04-21 02:31 19.20232 103.43970 33971 ft 488 kts 220°
2026-04-21 02:32 19.14711 103.39768 33966 ft 489 kts 220°
2026-04-21 02:32 19.09186 103.35567 33971 ft 489 kts 220°
2026-04-21 02:33 19.03664 103.31372 33968 ft 489 kts 220°
2026-04-21 02:33 18.98141 103.27180 33965 ft 489 kts 220°
2026-04-21 02:34 18.92618 103.22991 33971 ft 488 kts 220°
2026-04-21 02:34 18.87129 103.18832 33962 ft 488 kts 220°
2026-04-21 02:35 18.81613 103.14656 33967 ft 488 kts 220°
2026-04-21 02:35 18.76093 103.10479 33962 ft 489 kts 219°
2026-04-21 02:36 18.70561 103.06297 33960 ft 489 kts 219°
2026-04-21 02:36 18.65022 103.02113 33943 ft 490 kts 219°
2026-04-21 02:37 18.59475 102.97927 33945 ft 490 kts 219°
2026-04-21 02:37 18.53927 102.93743 33928 ft 490 kts 219°
2026-04-21 02:38 18.48371 102.89557 33921 ft 491 kts 219°
2026-04-21 02:38 18.42805 102.85367 33916 ft 492 kts 219°
2026-04-21 02:39 18.37231 102.81174 33915 ft 493 kts 219°
2026-04-21 02:39 18.31646 102.76977 33908 ft 494 kts 219°
2026-04-21 02:40 18.26053 102.72776 33898 ft 494 kts 219°
2026-04-21 02:40 18.20458 102.68577 33890 ft 494 kts 219°
2026-04-21 02:41 18.14899 102.64409 33885 ft 494 kts 219°
2026-04-21 02:41 18.09309 102.60220 33885 ft 493 kts 219°
2026-04-21 02:42 18.03714 102.56045 33885 ft 494 kts 217°
2026-04-21 02:42 17.97678 102.52544 33885 ft 499 kts 206°
2026-04-21 02:43 17.91177 102.49948 33884 ft 500 kts 204°
2026-04-21 02:43 17.84670 102.47342 33880 ft 499 kts 205°
2026-04-21 02:44 17.78177 102.44707 33880 ft 500 kts 204°
2026-04-21 02:44 17.71730 102.42119 33892 ft 499 kts 204°
2026-04-21 02:45 17.65246 102.39519 33895 ft 499 kts 204°
2026-04-21 02:45 17.58759 102.36916 33897 ft 499 kts 204°
2026-04-21 02:46 17.52273 102.34315 33895 ft 498 kts 204°
2026-04-21 02:46 17.45793 102.31717 33883 ft 498 kts 204°
2026-04-21 02:47 17.39318 102.29123 33899 ft 498 kts 204°
2026-04-21 02:47 17.32840 102.26530 33895 ft 498 kts 204°
2026-04-21 02:48 17.26362 102.23940 33898 ft 498 kts 204°
2026-04-21 02:48 17.19927 102.21369 33901 ft 498 kts 204°
2026-04-21 02:49 17.13449 102.18782 33902 ft 498 kts 204°
2026-04-21 02:49 17.06973 102.16198 33900 ft 498 kts 204°
2026-04-21 02:50 17.00495 102.13615 33902 ft 498 kts 204°
2026-04-21 02:50 16.94019 102.11035 33893 ft 498 kts 204°
2026-04-21 02:51 16.87534 102.08452 33889 ft 498 kts 204°
2026-04-21 02:51 16.82151 102.06311 33869 ft 498 kts 203°
2026-04-21 02:52 16.75670 102.03734 33882 ft 498 kts 204°
2026-04-21 02:52 16.69183 102.01157 33887 ft 499 kts 204°
2026-04-21 02:53 16.62706 101.98530 33881 ft 498 kts 206°
2026-04-21 02:53 16.56488 101.95387 33881 ft 497 kts 209°
2026-04-21 02:54 16.50296 101.92155 33884 ft 498 kts 209°
2026-04-21 02:54 16.44085 101.88938 33883 ft 498 kts 208°
2026-04-21 02:55 16.37860 101.85741 33881 ft 499 kts 208°
2026-04-21 02:55 16.31664 101.82570 33878 ft 499 kts 208°
2026-04-21 02:56 16.25428 101.79381 33878 ft 500 kts 208°
2026-04-21 02:56 16.16069 101.74594 33877 ft 499 kts 208°
2026-04-21 02:57 16.09830 101.71408 33869 ft 500 kts 208°
2026-04-21 02:57 16.03579 101.68217 33869 ft 500 kts 208°
2026-04-21 02:58 15.97330 101.65029 33864 ft 501 kts 208°
2026-04-21 02:58 15.91079 101.61842 33865 ft 501 kts 208°
2026-04-21 02:59 15.84823 101.58654 33862 ft 501 kts 208°
2026-04-21 02:59 15.78557 101.55464 33857 ft 502 kts 208°
2026-04-21 03:00 15.72286 101.52273 33865 ft 502 kts 208°
2026-04-21 03:00 15.65996 101.49075 33860 ft 503 kts 208°
2026-04-21 03:01 15.59748 101.45901 33863 ft 504 kts 208°
2026-04-21 03:01 15.53440 101.42699 33855 ft 504 kts 208°
2026-04-21 03:02 15.47138 101.39501 33857 ft 504 kts 208°
2026-04-21 03:02 15.40834 101.36305 33857 ft 504 kts 208°
2026-04-21 03:03 15.34529 101.33110 33851 ft 505 kts 208°
2026-04-21 03:03 15.28213 101.29913 33856 ft 505 kts 208°
2026-04-21 03:04 15.21900 101.26718 33861 ft 506 kts 208°
2026-04-21 03:04 15.15569 101.23517 33856 ft 506 kts 208°
2026-04-21 03:05 15.09235 101.20315 33860 ft 507 kts 208°
2026-04-21 03:05 15.02901 101.17118 33861 ft 507 kts 208°
2026-04-21 03:06 14.96558 101.13916 33861 ft 507 kts 207°
2026-04-21 03:06 14.90257 101.10738 33864 ft 507 kts 207°
2026-04-21 03:07 14.83910 101.07539 33862 ft 507 kts 207°
2026-04-21 03:07 14.77563 101.04343 33869 ft 507 kts 207°
2026-04-21 03:08 14.71218 101.01140 33865 ft 508 kts 208°
2026-04-21 03:08 14.64882 100.97910 33869 ft 508 kts 208°
2026-04-21 03:09 14.58538 100.94673 33872 ft 508 kts 208°
2026-04-21 03:09 14.52192 100.91441 33871 ft 509 kts 208°
2026-04-21 03:10 14.45839 100.88211 33869 ft 509 kts 208°
2026-04-21 03:10 14.39475 100.84976 33875 ft 510 kts 207°
2026-04-21 03:11 14.33141 100.81760 33871 ft 510 kts 207°
2026-04-21 03:11 14.26766 100.78525 33871 ft 510 kts 207°
2026-04-21 03:12 14.20393 100.75293 33871 ft 510 kts 207°
2026-04-21 03:12 14.15093 100.72606 33877 ft 511 kts 207°
2026-04-21 03:13 14.11601 100.70836 33879 ft 511 kts 207°
2026-04-21 03:13 14.05220 100.67605 33882 ft 511 kts 207°
2026-04-21 03:14 13.98869 100.64390 33883 ft 511 kts 207°
2026-04-21 03:14 13.92481 100.61158 33887 ft 512 kts 207°
2026-04-21 03:15 13.85872 100.58421 33884 ft 513 kts 197°
2026-04-21 03:15 13.78989 100.56411 33885 ft 514 kts 196°
2026-04-21 03:16 13.72103 100.54422 33880 ft 514 kts 197°
2026-04-21 03:16 13.65222 100.52388 33879 ft 514 kts 197°
2026-04-21 03:17 13.58346 100.50334 33881 ft 514 kts 197°
2026-04-21 03:17 13.51478 100.48283 33875 ft 514 kts 197°
2026-04-21 03:18 13.44610 100.46236 33876 ft 514 kts 197°
2026-04-21 03:18 13.37784 100.44205 33877 ft 514 kts 197°
2026-04-21 03:19 13.30922 100.42163 33879 ft 513 kts 197°
2026-04-21 03:19 13.24061 100.40114 33877 ft 513 kts 198°
2026-04-21 03:20 13.17643 100.36894 33881 ft 511 kts 215°
2026-04-21 03:20 13.12342 100.32166 33879 ft 509 kts 227°
2026-04-21 03:21 13.07483 100.26886 33874 ft 509 kts 227°
2026-04-21 03:21 13.02553 100.21661 33874 ft 510 kts 226°
2026-04-21 03:22 12.97577 100.16471 33876 ft 510 kts 226°
2026-04-21 03:22 12.92591 100.11289 33875 ft 511 kts 226°
2026-04-21 03:23 12.87599 100.06101 33879 ft 511 kts 226°
2026-04-21 03:23 12.82609 100.00915 33882 ft 511 kts 226°
2026-04-21 03:24 12.77615 99.95727 33882 ft 511 kts 226°
2026-04-21 03:24 12.72617 99.90538 33885 ft 511 kts 226°
2026-04-21 03:25 12.67619 99.85351 33883 ft 511 kts 226°
2026-04-21 03:25 12.62619 99.80178 33879 ft 509 kts 224°
2026-04-21 03:26 12.59807 99.77978 33876 ft 510 kts 209°
2026-04-21 03:26 12.56561 99.76533 33896 ft 511 kts 197°
2026-04-21 03:26 12.53076 99.75820 33885 ft 511 kts 183°
2026-04-21 03:26 12.49581 99.75806 33906 ft 509 kts 179°
2026-04-21 03:27 12.42474 99.75949 33891 ft 512 kts 179°
2026-04-21 03:27 12.35326 99.76029 33893 ft 515 kts 179°
2026-04-21 03:28 12.28150 99.76046 33900 ft 516 kts 179°
2026-04-21 03:28 12.20968 99.76047 33898 ft 516 kts 179°
2026-04-21 03:29 12.13783 99.76050 33898 ft 516 kts 179°
2026-04-21 03:29 12.06612 99.76059 33901 ft 515 kts 179°
2026-04-21 03:30 11.99460 99.76067 33905 ft 514 kts 179°
2026-04-21 03:30 11.92314 99.76075 33901 ft 513 kts 179°
2026-04-21 03:31 11.85185 99.76084 33904 ft 512 kts 179°
2026-04-21 03:31 11.78058 99.76093 33902 ft 512 kts 179°
2026-04-21 03:32 11.70935 99.76101 33901 ft 512 kts 179°
2026-04-21 03:32 11.63802 99.76112 33895 ft 512 kts 179°
2026-04-21 03:33 11.56678 99.76125 33893 ft 512 kts 179°
2026-04-21 03:33 11.49547 99.76137 33895 ft 513 kts 179°
2026-04-21 03:34 11.42411 99.76150 33893 ft 513 kts 179°
2026-04-21 03:34 11.35269 99.76162 33892 ft 513 kts 179°
2026-04-21 03:35 11.28180 99.76175 33891 ft 513 kts 179°
2026-04-21 03:35 11.21039 99.76187 33892 ft 513 kts 179°
2026-04-21 03:36 11.13922 99.75748 33894 ft 513 kts 188°
2026-04-21 03:36 11.06978 99.74062 33897 ft 514 kts 197°
2026-04-21 03:37 11.00159 99.71865 33891 ft 514 kts 197°
2026-04-21 03:37 10.93340 99.69670 33888 ft 514 kts 197°
2026-04-21 03:38 10.86513 99.67514 33890 ft 513 kts 197°
2026-04-21 03:38 10.79727 99.65392 33893 ft 513 kts 196°
2026-04-21 03:39 10.74008 99.63606 33892 ft 513 kts 196°
2026-04-21 03:39 10.66077 99.61127 33892 ft 513 kts 196°
2026-04-21 03:40 10.59253 99.58994 33892 ft 513 kts 196°
2026-04-21 03:40 10.53583 99.57222 33894 ft 512 kts 196°
2026-04-21 03:41 10.46769 99.55093 33891 ft 512 kts 196°
2026-04-21 03:41 10.39957 99.52966 33886 ft 512 kts 196°
2026-04-21 03:42 10.33143 99.50840 33887 ft 512 kts 196°
2026-04-21 03:42 10.26336 99.48717 33889 ft 512 kts 196°
2026-04-21 03:43 10.19526 99.46593 33887 ft 512 kts 196°
2026-04-21 03:43 10.12712 99.44470 33896 ft 512 kts 196°
2026-04-21 03:44 10.05910 99.42351 33896 ft 512 kts 196°
2026-04-21 03:44 9.99096 99.40230 33895 ft 512 kts 196°
2026-04-21 03:45 9.92289 99.38111 33900 ft 512 kts 196°
2026-04-21 03:45 9.85492 99.35996 33899 ft 511 kts 196°
2026-04-21 03:46 9.78734 99.33895 33895 ft 511 kts 196°
2026-04-21 03:46 9.71936 99.31781 33891 ft 511 kts 196°
2026-04-21 03:47 9.65134 99.29668 33893 ft 511 kts 196°
2026-04-21 03:47 9.58337 99.27557 33885 ft 511 kts 196°
2026-04-21 03:48 9.51537 99.25446 33888 ft 511 kts 196°
2026-04-21 03:48 9.44734 99.23336 33886 ft 511 kts 196°
2026-04-21 03:49 9.37927 99.21224 33883 ft 512 kts 196°
2026-04-21 03:49 9.31114 99.19112 33884 ft 512 kts 196°
2026-04-21 03:50 9.24302 99.17000 33883 ft 512 kts 196°
2026-04-21 03:50 9.17500 99.14855 33886 ft 512 kts 199°
2026-04-21 03:51 9.11136 99.11719 33888 ft 513 kts 211°
2026-04-21 03:51 9.05364 99.07407 33892 ft 513 kts 219°
2026-04-21 03:52 8.99905 99.02826 33883 ft 514 kts 219°
2026-04-21 03:52 8.94374 98.98243 33879 ft 514 kts 219°
2026-04-21 03:53 8.88818 98.93699 33884 ft 514 kts 218°
2026-04-21 03:53 8.83262 98.89161 33894 ft 513 kts 219°
2026-04-21 03:54 8.77708 98.84626 33888 ft 513 kts 218°
2026-04-21 03:54 8.72141 98.80115 33891 ft 513 kts 218°
2026-04-21 03:55 8.66573 98.75607 33891 ft 512 kts 218°
2026-04-21 03:55 8.61068 98.71144 33875 ft 495 kts 218°
2026-04-21 03:56 8.58429 98.69005 33872 ft 479 kts 218°
2026-04-21 03:56 8.55875 98.66934 33873 ft 463 kts 218°
2026-04-21 03:56 8.53402 98.64931 33873 ft 448 kts 218°
2026-04-21 03:56 8.51005 98.62990 33878 ft 434 kts 218°
2026-04-21 03:57 8.46046 98.59681 33889 ft 424 kts 208°
2026-04-21 03:57 8.40975 98.56734 33897 ft 423 kts 210°
2026-04-21 03:58 8.35785 98.54071 33887 ft 413 kts 191°
2026-04-21 03:58 8.32960 98.53805 33886 ft 406 kts 173°
2026-04-21 03:58 8.30157 98.54109 33913 ft 405 kts 172°
2026-04-21 03:59 8.24532 98.54730 33910 ft 408 kts 173°
2026-04-21 04:00 8.16255 98.53764 33907 ft 410 kts 213°
2026-04-21 04:00 8.14117 98.51866 33900 ft 411 kts 232°
2026-04-21 04:00 8.12638 98.49446 33909 ft 414 kts 250°
2026-04-21 04:00 8.12061 98.46619 33929 ft 413 kts 268°
2026-04-21 04:01 8.11995 98.43705 33903 ft 417 kts 270°
2026-04-21 04:01 8.11811 98.37814 33922 ft 420 kts 267°
2026-04-21 04:02 8.11381 98.31987 33904 ft 414 kts 265°
2026-04-21 04:02 8.11140 98.29049 33929 ft 425 kts 265°
2026-04-21 04:02 8.10895 98.26036 33939 ft 436 kts 265°
2026-04-21 04:02 8.10648 98.22943 33934 ft 448 kts 266°
2026-04-21 04:03 8.10766 98.19793 33905 ft 454 kts 284°
2026-04-21 04:03 8.11907 98.16805 33923 ft 461 kts 302°
2026-04-21 04:03 8.13904 98.14260 33926 ft 467 kts 319°
2026-04-21 04:03 8.16510 98.12348 33920 ft 473 kts 334°
2026-04-21 04:04 8.19605 98.11153 33919 ft 479 kts 349°
2026-04-21 04:04 8.22921 98.10813 33912 ft 483 kts
2026-04-21 04:04 8.26245 98.11368 33917 ft 487 kts 19°
2026-04-21 04:04 8.29319 98.12804 33905 ft 490 kts 34°
2026-04-21 04:05 8.31914 98.15039 33913 ft 493 kts 50°
2026-04-21 04:05 8.33813 98.17924 33905 ft 494 kts 66°
2026-04-21 04:05 8.34798 98.21224 33895 ft 493 kts 83°
2026-04-21 04:05 8.34755 98.24682 33901 ft 494 kts 100°
2026-04-21 04:06 8.33705 98.27966 33906 ft 495 kts 117°
2026-04-21 04:06 8.31760 98.30836 33914 ft 497 kts 131°
2026-04-21 04:06 8.29204 98.33112 33903 ft 499 kts 145°
2026-04-21 04:07 8.23100 98.36468 33915 ft 501 kts 153°
2026-04-21 04:07 8.16866 98.39657 33910 ft 501 kts 150°
2026-04-21 04:08 8.10798 98.43089 33900 ft 497 kts 143°
2026-04-21 04:08 8.08263 98.45439 33910 ft 494 kts 128°
2026-04-21 04:08 8.06429 98.48366 33916 ft 492 kts 114°
2026-04-21 04:08 8.05266 98.51602 33913 ft 492 kts 103°
2026-04-21 04:09 8.04788 98.55007 33871 ft 489 kts 88°
2026-04-21 04:09 8.05045 98.58419 33624 ft 490 kts 84°
2026-04-21 04:09 8.05406 98.61858 32939 ft 494 kts 83°
2026-04-21 04:09 8.05751 98.65294 32307 ft 490 kts 84°
2026-04-21 04:10 8.06053 98.68651 31704 ft 483 kts 84°
2026-04-21 04:10 8.06721 98.71936 31073 ft 477 kts 69°
2026-04-21 04:10 8.08249 98.74875 30505 ft 472 kts 54°
2026-04-21 04:10 8.10482 98.77277 29937 ft 469 kts 39°
2026-04-21 04:11 8.13180 98.79102 29303 ft 466 kts 29°
2026-04-21 04:11 8.16158 98.80370 28659 ft 464 kts 16°
2026-04-21 04:11 8.19326 98.80857 28048 ft 458 kts
2026-04-21 04:11 8.22496 98.81133 27449 ft 455 kts
2026-04-21 04:12 8.25644 98.81384 26868 ft 453 kts
2026-04-21 04:12 8.28768 98.81644 26292 ft 450 kts
2026-04-21 04:12 8.31878 98.81925 25737 ft 447 kts
2026-04-21 04:12 8.34962 98.82223 25189 ft 444 kts
2026-04-21 04:13 8.38030 98.82530 24669 ft 441 kts
2026-04-21 04:13 8.41070 98.82841 24145 ft 438 kts
2026-04-21 04:13 8.44093 98.83152 23649 ft 435 kts
2026-04-21 04:13 8.47100 98.83462 23093 ft 433 kts
2026-04-21 04:14 8.50086 98.83771 22503 ft 430 kts
2026-04-21 04:14 8.53054 98.84076 21938 ft 427 kts
2026-04-21 04:14 8.56003 98.84379 21388 ft 425 kts
2026-04-21 04:14 8.58937 98.84681 20840 ft 422 kts
2026-04-21 04:15 8.61814 98.84976 20334 ft 419 kts
2026-04-21 04:15 8.64706 98.85272 19805 ft 417 kts
2026-04-21 04:15 8.67586 98.85568 19312 ft 414 kts
2026-04-21 04:15 8.70443 98.85862 18813 ft 412 kts
2026-04-21 04:16 8.73285 98.86156 18332 ft 409 kts
2026-04-21 04:16 8.76109 98.86443 17800 ft 406 kts
2026-04-21 04:16 8.78915 98.86731 17244 ft 404 kts
2026-04-21 04:16 8.81676 98.87086 16709 ft 395 kts 14°
2026-04-21 04:17 8.84199 98.88119 16196 ft 391 kts 33°
2026-04-21 04:17 8.86261 98.89870 15709 ft 387 kts 50°
2026-04-21 04:17 8.87719 98.92135 15209 ft 384 kts 66°
2026-04-21 04:17 8.88436 98.94687 15007 ft 374 kts 83°
2026-04-21 04:18 8.88396 98.97291 14887 ft 370 kts 99°
2026-04-21 04:18 8.87630 98.99764 14871 ft 369 kts 115°
2026-04-21 04:18 8.86204 99.01918 14879 ft 371 kts 132°
2026-04-21 04:18 8.84216 99.03577 14884 ft 373 kts 148°
2026-04-21 04:19 8.81839 99.04644 14900 ft 375 kts 162°
2026-04-21 04:19 8.79276 99.05080 14870 ft 375 kts 180°
2026-04-21 04:19 8.76694 99.04863 14894 ft 373 kts 185°
2026-04-21 04:19 8.74095 99.04584 14889 ft 377 kts 185°
2026-04-21 04:20 8.71474 99.04311 14881 ft 378 kts 185°
2026-04-21 04:20 8.68921 99.03707 14874 ft 379 kts 202°
2026-04-21 04:20 8.66617 99.02390 14877 ft 382 kts 216°
2026-04-21 04:20 8.64598 99.00647 14776 ft 382 kts 223°
2026-04-21 04:21 8.62697 98.98817 14678 ft 382 kts 223°
2026-04-21 04:21 8.60784 98.96947 14363 ft 384 kts 223°
2026-04-21 04:21 8.58869 98.95066 13959 ft 384 kts 224°
2026-04-21 04:21 8.56957 98.93201 13518 ft 381 kts 223°
2026-04-21 04:22 8.55054 98.91354 13042 ft 378 kts 223°
2026-04-21 04:22 8.53159 98.89523 12524 ft 376 kts 223°
2026-04-21 04:22 8.51271 98.87699 12042 ft 374 kts 223°
2026-04-21 04:22 8.49393 98.85888 11566 ft 372 kts 223°
2026-04-21 04:23 8.47522 98.84085 11100 ft 370 kts 223°
2026-04-21 04:23 8.45663 98.82297 10648 ft 368 kts 223°
2026-04-21 04:23 8.43811 98.80518 10188 ft 367 kts 223°
2026-04-21 04:23 8.41966 98.78748 9754 ft 365 kts 223°
2026-04-21 04:24 8.40131 98.76984 9279 ft 363 kts 224°
2026-04-21 04:24 8.38302 98.75227 8802 ft 361 kts 223°
2026-04-21 04:24 8.36487 98.73484 8335 ft 360 kts 223°
2026-04-21 04:24 8.34679 98.71747 7863 ft 357 kts 223°
2026-04-21 04:25 8.32888 98.70024 7417 ft 355 kts 223°
2026-04-21 04:25 8.31107 98.68314 6986 ft 352 kts 223°
2026-04-21 04:25 8.29337 98.66614 6543 ft 350 kts 223°
2026-04-21 04:25 8.27579 98.64927 6143 ft 348 kts 223°
2026-04-21 04:26 8.25826 98.63242 5657 ft 347 kts 223°
2026-04-21 04:26 8.24080 98.61567 5189 ft 345 kts 223°
2026-04-21 04:26 8.22363 98.59920 4749 ft 330 kts 224°
2026-04-21 04:26 8.20759 98.58381 4315 ft 306 kts 224°
2026-04-21 04:27 8.19268 98.56949 3906 ft 286 kts 224°
2026-04-21 04:27 8.17883 98.55620 3533 ft 271 kts 224°
2026-04-21 04:27 8.16544 98.54335 3183 ft 263 kts 224°
2026-04-21 04:27 8.15170 98.53017 2875 ft 275 kts 224°
2026-04-21 04:28 8.13790 98.51691 2552 ft 277 kts 225°
2026-04-21 04:28 8.12748 98.50140 2491 ft 266 kts 252°
2026-04-21 04:28 8.12489 98.48303 2504 ft 266 kts 269°
2026-04-21 04:28 8.12428 98.46431 2481 ft 263 kts 266°
2026-04-21 04:29 8.12300 98.44662 2432 ft 242 kts 266°
2026-04-21 04:29 8.12218 98.43552 2162 ft 237 kts 266°
2026-04-21 04:29 8.12073 98.41429 1751 ft 217 kts 266°
2026-04-21 04:29 8.12006 98.40444 1588 ft 207 kts 266°
2026-04-21 04:30 8.11910 98.39053 1314 ft 190 kts 266°
2026-04-21 04:30 8.11824 98.37803 1070 ft 169 kts 266°
2026-04-21 04:30 8.11746 98.36666 844 ft 156 kts 266°
2026-04-21 04:30 8.11673 98.35599 681 ft 155 kts 265°
2026-04-21 04:31 8.11596 98.34482 433 ft 162 kts 265°
2026-04-21 04:31 8.11484 98.33353 208 ft 161 kts 263°
2026-04-21 04:31 8.11378 98.32270 68 ft 146 kts 265°
2026-04-21 04:31 8.11293 98.31373 38 ft 110 kts 265°